Regional Weather Roundup
Issued by NWS

Home | Current Version | Previous Version | Graphics & Text | Print | Product List | Glossary On
Versions: 1 2 3 4 5 6 7 8 9 10 11 12 13 14 15 16 17 18 19 20 21 22 23 24 25 26 27 28
000
ASUS45 KPSR 181710
RWRAZ

ARIZONA HOURLY REGIONAL WEATHER ROUNDUP
NATIONAL WEATHER SERVICE PHOENIX AZ
1000 AM MST THU JAN 18 2018

NOTE: FAIR INDICATES FEW OR NO CLOUDS BELOW 12,000 FEET WITH NO
SIGNIFICANT WEATHER AND/OR OBSTRUCTIONS TO VISIBILITY.

AZZ001>003-036-181800-
NORTHWEST ARIZONA

CITY           SKY/WX    TMP DP  RH WIND       PRES   REMARKS
BULLHEAD CITY  SUNNY     55  39  54 CALM      30.23R
KINGMAN        SUNNY     53  31  42 CALM      30.26R
$$

AZZ004>008-015-016-018-181800-
NORTH CENTRAL ARIZONA

CITY           SKY/WX    TMP DP  RH WIND       PRES   REMARKS
GRAND CANYON   MOSUNNY   45  22  40 CALM      30.34R
WILLIAMS       SUNNY     45  23  42 SE5       30.31R
PRESCOTT       SUNNY     43  26  51 CALM      30.30R
FLAGSTAFF      SUNNY     40  22  48 CALM      30.34R
PAYSON         SUNNY     48  19  32 CALM      30.29R
PAGE           MOSUNNY   39  24  55 CALM      30.35R
$$

AZZ009>014-017-181800-
NORTHEAST ARIZONA

CITY           SKY/WX    TMP DP  RH WIND       PRES   REMARKS
WINSLOW        MOSUNNY   32  15  49 SE7       30.36R WCI  26
SAINT JOHNS    MOSUNNY   36  21  54 CALM      30.33R
WINDOW ROCK    MOSUNNY   34  21  59 CALM      30.34R
SHOW LOW       MOSUNNY   37  19  48 N3        30.33R
$$

AZZ540-542>544-546-548-181800-
GREATER PHOENIX AREA

CITY           SKY/WX    TMP DP  RH WIND       PRES   REMARKS
PHOENIX        MOSUNNY   56  29  35 E7        30.20R
BUCKEYE        SUNNY     55  32  41 SE12      30.20S
GLENDALE       MOSUNNY   57  32  38 CALM      30.22R
LUKE AFB       SUNNY     55  36  49 NE5       30.19R
DEER VALLEY    SUNNY     60  29  30 N3        30.20R
SCOTTSDALE     SUNNY     58  31  35 CALM      30.22R
MESA-FALCON    SUNNY     57  25  28 N14       30.21R
MESA-GATEWAY   MOSUNNY   54  28  37 SE3       30.22R
CHANDLER       MOSUNNY   54  27  35 NE3       30.21R
$$

AZZ539-553-181800-
SOUTHWEST MARICOPA COUNTY AND PINAL COUNTY

CITY           SKY/WX    TMP DP  RH WIND       PRES   REMARKS
CASA GRANDE    NOT AVBL
GILA BEND      MOSUNNY   65  21  19 E16       30.17R
$$

AZZ503-504-507>509-181800-
SOUTHEAST ARIZONA

CITY           SKY/WX    TMP DP  RH WIND       PRES   REMARKS
TUCSON         SUNNY     60  20  21 SE12      30.22R
DAVIS-MONTHAN  SUNNY     58  20  23 SE13      30.20R
RYAN FIELD     SUNNY     57  21  24 E14       30.21R
NOGALES        SUNNY     53  19  26 CALM      30.23R
SIERRA VISTA   SUNNY     51  19  27 E7        30.28R
DOUGLAS        SUNNY     42  19  39 CALM      30.29R
SAFFORD        SUNNY     47  18  31 SE12      30.31R
$$

AZZ532-181800-
SOUTHWEST ARIZONA

CITY           SKY/WX    TMP DP  RH WIND       PRES   REMARKS
YUMA           MOSUNNY   64  36  35 NE13      30.15R
$$

CAZ041-043-047-048-061-525>527-560>570-181800-
SOUTHERN CALIFORNIA

CITY           SKY/WX    TMP DP  RH WIND       PRES   REMARKS
DOWNTOWN L.A.  SUNNY     65  39  38 CALM      30.09R
L.A. AIRPORT   MOSUNNY   62  48  60 E5        30.10R
SAN DIEGO      FOG       57  57 100 S6        30.16R VSB 1/4
BURBANK        SUNNY     62  42  47 CALM      30.10S
ONTARIO        MOSUNNY   63  39  41 CALM      30.13R
RIVERSIDE      MOSUNNY   59  42  53 NE3       30.14R
PALM SPRINGS   MOSUNNY   65  41  41 N3        30.19R
EL CENTRO NAS  MOSUNNY   57  35  43 W3        30.18R
IMPERIAL       SUNNY     58  37  45 SW3       30.15R
BLYTHE         SUNNY     55  38  52 CALM      30.19R
NEEDLES        MOSUNNY   59  36  42 CALM      30.22R
$$

NVZ020-UTZ003-181800-
SOUTHERN NEVADA-UTAH

CITY           SKY/WX    TMP DP  RH WIND       PRES   REMARKS
LAS VEGAS      PTSUNNY   56  39  53 CALM      30.24R
SALT LAKE CITY PTSUNNY   45  29  53 SE14      30.19F
$$

NMZ009-TXZ055-181800-
NEW MEXICO-WEST TEXAS

CITY           SKY/WX    TMP DP  RH WIND       PRES   REMARKS
ALBUQUERQUE    MOSUNNY   32  15  49 N7        30.35R WCI  26
EL PASO        SUNNY     37  13  37 CALM      30.31S
$$


........................KEY........................
SKY/WX - SKY CONDITION/WEATHER
TMP    - TEMPERATURE IN FAHRENHEIT
DP     - DEW POINT IN FAHRENHEIT
RH     - RELATIVE HUMIDITY IN PERCENT
WIND   - DIRECTION AND SPEED IN MILES PER HOUR (MPH)
VRB    - VARIABLE WIND DIRECTION
PRES   - MEAN SEA LEVEL PRESSURE IN INCHES OF MERCURY
         F - FALLING PRESSURE   R - RISING PRESSURE
         S - STEADY PRESSURE
VSB    - VISIBILITY IN MILES
HX     - HEAT INDEX IN FAHRENHEIT
WCI    - WIND CHILL INDEX IN FAHRENHEIT
TC     - TEMPERATURE IN CELSIUS WHICH IS ALSO KNOWN AS
         TEMPERATURE IN CENTIGRADE
AFB    - AIR FORCE BASE
         LUKE AFB IS LUKE AIR FORCE BASE
         DAVIS-MONTHAN IS DAVIS-MONTHAN AIR FORCE BASE
NAS    - NAVAL AIR STATION
         EL CENTRO NAS IS EL CENTRO NAVAL AIR STATION
N/A    - NOT AVAILABLE





USA.gov is the U.S. government's official web portal to all federal, state and local government web resources and services.